Location: St Paul
(33.4390°N, 83.7350°W)
Time: 15:16:16
(UTC-04:00)

Cosmos 1242 Rocket - Pass Details

Date: 06 October 2017
Orbit: 453 x 492 km, 81.2° (Epoch: 21 October)

Event Time Altitude Azimuth Distance (km) Brightness Sun altitude
Rises 20:44:42 0° 202° (SSW) 2,468 6.4 -20.1°
Reaches altitude 10° 20:46:50 10° 211° (SSW) 1,604 5.5 -20.5°
Maximum altitude 20:50:08 39° 281° (W) 717 3.9 -21.2°
Drops below altitude 10° 20:53:31 10° 351° (N) 1,636 5.4 -21.9°
Sets 20:55:43 0° 360° (N) 2,525 6.3 -22.4°
